User: anonymous   Login
Location: Fort Wayne
(41.1310°N, 85.1290°W)
Time: 08:45:36
(UTC-04:00)
Language:

Cosmos 1980 - Orbit

View from above orbital plane
View from above orbital plane
View from above satellite
View from above satellite

Ground track
Ground track

The orbit data is extracted from the following two-line orbital elements,

1 19649U 88102A   14296.16419607 -.00000157  00000-0 -57048-4 0  8930
2 19649 071.0009 297.4266 0007114 323.8464 036.2177 14.14562329337676
Epoch (UTC): 23 October 2014 03:56:26
Eccentricity: 0.0007114
inclination: 71.0009°
perigee height: 838 km
apogee height: 849 km
right ascension of ascending node: 297.4266°
argument of perigee: 323.8464°
revolutions per day: 14.14562329
mean anomaly at epoch: 36.2177°
orbit number at epoch: 33767

The dashed part of the orbit path shows where the satellite is in the earth's shadow,  

DLR